CZ-2D R/B (53523 NORAD) Tracking and Keplerian Element Data

This shows tracking and keplerian element data for the satellite.

Feedback or suggestion? Click here.




ElementValue
Catalog53523
NameCZ-2D R/B
Epoch Orbit252
Epoch Day248.22912282
Epoch Year2022
RAAN103.9327
Inclination35.0015
Eccentricity0.0007878
Argument of Perigee47.1472
Mean Anonmoly312.9914
Mean Motion15.23616946
Decay Rate0.00010628
L11 53523U 22100B 22248.22912282 .00010628 00000+0 43374-3 0 9999
L22 53523 35.0015 103.9327 0007878 47.1472 312.9914 15.23616946 2525



Live tracking and technical data element details for CZ-2D R/B (NORAD 53523). CZ-2D R/B can be tracked NOW for your location showing map with azimuth and elevation plus other details from your city location.







IsCatalogInMostPopularTable: catalog: 53523, numindb: 4
Update: records affected: 1



GetName: 53523 CZ-2D R/B

Hit Count: updated at: Thu, 08 Dec 2022 19:21:40 GMT